TimeCDT,TemperatureF,Dew PointF,Humidity,Sea Level PressureIn,VisibilityMPH,Wind Direction,Wind SpeedMPH,Gust SpeedMPH,PrecipitationIn,Events,Conditions,WindDirDegrees,DateUTC
12:56 AM,36.0,19.9,52,30.29,-9999.0,NNW,4.6,-,N/A,,Unknown,340,2013-03-27 05:56:00
1:56 AM,36.0,19.9,52,30.29,-9999.0,NW,4.6,-,N/A,,Unknown,320,2013-03-27 06:56:00
2:56 AM,36.0,19.9,52,30.29,-9999.0,NNW,3.5,-,N/A,,Unknown,340,2013-03-27 07:56:00
3:56 AM,36.0,21.0,55,30.29,-9999.0,NNW,4.6,-,N/A,,Unknown,330,2013-03-27 08:56:00
4:56 AM,35.1,21.0,57,30.30,-9999.0,NNW,4.6,-,N/A,,Unknown,340,2013-03-27 09:56:00
5:56 AM,35.1,19.9,54,30.31,-9999.0,NNW,4.6,-,N/A,,Unknown,330,2013-03-27 10:56:00
6:56 AM,34.0,21.0,59,30.32,-9999.0,North,3.5,-,N/A,,Unknown,350,2013-03-27 11:56:00
7:56 AM,36.0,18.0,48,30.33,-9999.0,NNW,4.6,-,N/A,,Unknown,330,2013-03-27 12:56:00
8:56 AM,37.9,17.1,43,30.33,-9999.0,Calm,Calm,-,N/A,,Unknown,0,2013-03-27 13:56:00
9:56 AM,39.9,17.1,40,30.33,-9999.0,Variable,4.6,-,N/A,,Unknown,0,2013-03-27 14:56:00
10:56 AM,41.0,16.0,36,30.32,-9999.0,North,5.8,-,N/A,,Unknown,10,2013-03-27 15:56:00
11:56 AM,42.1,14.0,32,30.32,-9999.0,Variable,3.5,-,N/A,,Unknown,0,2013-03-27 16:56:00
12:56 PM,44.1,14.0,30,30.31,-9999.0,Variable,3.5,-,N/A,,Unknown,0,2013-03-27 17:56:00
1:56 PM,37.0,25.0,62,30.31,-9999.0,SSW,15.0,-,N/A,,Unknown,210,2013-03-27 18:56:00
2:56 PM,37.9,26.1,62,30.31,-9999.0,SSE,5.8,-,N/A,,Unknown,160,2013-03-27 19:56:00
3:56 PM,37.0,25.0,62,30.30,-9999.0,South,10.4,-,N/A,,Unknown,190,2013-03-27 20:56:00
4:56 PM,39.0,25.0,57,30.30,-9999.0,ENE,5.8,-,N/A,,Unknown,60,2013-03-27 21:56:00
5:56 PM,43.0,17.1,35,30.30,-9999.0,NW,4.6,-,N/A,,Unknown,310,2013-03-27 22:56:00
6:56 PM,39.9,17.1,40,30.30,-9999.0,NW,6.9,-,N/A,,Unknown,320,2013-03-27 23:56:00
7:56 PM,37.0,18.0,46,30.30,-9999.0,NNW,8.1,-,N/A,,Unknown,330,2013-03-28 00:56:00
8:56 PM,37.0,18.0,46,30.30,-9999.0,NNW,9.2,-,N/A,,Unknown,330,2013-03-28 01:56:00
9:56 PM,36.0,16.0,44,30.31,-9999.0,NNW,9.2,-,N/A,,Unknown,340,2013-03-28 02:56:00
10:56 PM,36.0,15.1,43,30.30,-9999.0,NNW,9.2,18.4,N/A,,Unknown,340,2013-03-28 03:56:00
11:56 PM,35.1,15.1,44,30.30,-9999.0,NNW,9.2,18.4,N/A,,Unknown,340,2013-03-28 04:56:00